| time (UTC) | temp F | wind direction | speed knots | gust knots | rain 1hr in | rain 24hr in | rain mn in | humidity % | barometer mb |
| 20260507185339 | 60 | 218 | 1.7 | 2.6 | 0.00 | 0.00 | 0.00 | 74 | 1012.8 |
| 20260507184840 | 60 | 242 | 1.7 | 3.5 | 0.00 | 0.00 | 0.00 | 74 | 1012.8 |
| 20260507184339 | 60 | 217 | 0.0 | 4.3 | 0.00 | 0.00 | 0.00 | 74 | 1012.8 |
| 20260507183841 | 60 | 172 | 2.6 | 4.3 | 0.00 | 0.00 | 0.00 | 74 | 1012.7 |
| 20260507182840 | 60 | 224 | 2.6 | 4.3 | 0.00 | 0.00 | 0.00 | 72 | 1012.6 |
| 20260507181839 | 60 | 213 | 1.7 | 3.5 | 0.00 | 0.00 | 0.00 | 71 | 1012.5 |
| 20260507181340 | 61 | 174 | 0.9 | 3.5 | 0.00 | 0.00 | 0.00 | 70 | 1012.4 |
| 20260507180840 | 61 | 204 | 1.7 | 3.5 | 0.00 | 0.00 | 0.00 | 70 | 1012.4 |
| 20260507180340 | 61 | 101 | 1.7 | 2.6 | 0.00 | 0.00 | 0.00 | 69 | 1012.2 |
| 20260507175840 | 61 | 192 | 1.7 | 3.5 | 0.00 | 0.00 | 0.00 | 69 | 1012.3 |
| 20260507175339 | 61 | 195 | 2.6 | 4.3 | 0.00 | 0.00 | 0.00 | 67 | 1012.1 |
| 20260507174840 | 61 | 194 | 1.7 | 4.3 | 0.00 | 0.00 | 0.00 | 67 | 1012.3 |
| 20260507174340 | 62 | 198 | 1.7 | 4.3 | 0.00 | 0.00 | 0.00 | 66 | 1011.9 |
| 20260507173839 | 62 | 216 | 2.6 | 3.5 | 0.00 | 0.00 | 0.00 | 65 | 1012.2 |
| 20260507173339 | 62 | 213 | 1.7 | 3.5 | 0.00 | 0.00 | 0.00 | 65 | 1012.1 |
| 20260507172340 | 62 | 220 | 1.7 | 5.2 | 0.00 | 0.00 | 0.00 | 65 | 1012.0 |
| 20260507171840 | 62 | 126 | 0.9 | 6.1 | 0.00 | 0.00 | 0.00 | 64 | 1011.7 |
| 20260507170339 | 63 | 234 | 4.3 | 8.7 | 0.00 | 0.00 | 0.00 | 60 | 1011.6 |
| 20260507165840 | 63 | 140 | 1.7 | 8.7 | 0.00 | 0.00 | 0.00 | 57 | 1011.5 |
| 20260507165340 | 63 | 208 | 1.7 | 5.2 | 0.00 | 0.00 | 0.00 | 58 | 1011.5 |
| 20260507164840 | 63 | 202 | 2.6 | 4.3 | 0.00 | 0.00 | 0.00 | 59 | 1011.8 |
| 20260507164340 | 64 | 229 | 1.7 | 6.1 | 0.00 | 0.00 | 0.00 | 58 | 1011.6 |
| 20260507163339 | 64 | 175 | 1.7 | 13.0 | 0.00 | 0.00 | 0.00 | 56 | 1011.4 |
| 20260507162839 | 64 | 201 | 1.7 | 9.6 | 0.00 | 0.00 | 0.00 | 55 | 1011.5 |
| 20260507162340 | 65 | 217 | 3.5 | 9.6 | 0.00 | 0.00 | 0.00 | 54 | 1011.5 |
| 20260507161839 | 65 | 184 | 1.7 | 8.7 | 0.00 | 0.00 | 0.00 | 53 | 1011.3 |
| 20260507161340 | 65 | 196 | 3.5 | 8.7 | 0.00 | 0.00 | 0.00 | 52 | 1011.3 |
| 20260507160839 | 66 | 199 | 7.8 | 8.7 | 0.00 | 0.00 | 0.00 | 51 | 1011.3 |
| 20260507160339 | 66 | 197 | 4.3 | 7.8 | 0.00 | 0.00 | 0.00 | 49 | 1011.1 |
| 20260507155840 | 67 | 185 | 1.7 | 7.8 | 0.00 | 0.00 | 0.00 | 47 | 1011.2 |
| 20260507154840 | 69 | 83 | 0.0 | 2.6 | 0.00 | 0.00 | 0.00 | 44 | 1011.0 |
| 20260507154340 | 70 | 146 | 0.0 | 1.7 | 0.00 | 0.00 | 0.00 | 41 | 1011.1 |
| 20260507153840 | 70 | 208 | 0.0 | 1.7 | 0.00 | 0.00 | 0.00 | 40 | 1011.1 |
| 20260507153340 | 71 | 315 | 0.0 | 3.5 | 0.00 | 0.00 | 0.00 | 41 | 1011.0 |
| 20260507152839 | 71 | 340 | 0.0 | 3.5 | 0.00 | 0.00 | 0.00 | 40 | 1011.2 |
| 20260507151840 | 71 | 236 | 0.0 | 4.3 | 0.00 | 0.00 | 0.00 | 40 | 1011.0 |
| 20260507151340 | 71 | 306 | 1.7 | 4.3 | 0.00 | 0.00 | 0.00 | 39 | 1010.9 |
| 20260507150840 | 72 | 27 | 1.7 | 2.6 | 0.00 | 0.00 | 0.00 | 38 | 1010.9 |
| 20260507150339 | 72 | 199 | 1.7 | 3.5 | 0.00 | 0.00 | 0.00 | 38 | 1010.9 |
| 20260507145840 | 73 | 220 | 2.6 | 3.5 | 0.00 | 0.00 | 0.00 | 37 | 1010.9 |
| 20260507144340 | 74 | 315 | 0.0 | 6.1 | 0.00 | 0.00 | 0.00 | 37 | 1010.8 |
| 20260507143840 | 74 | 355 | 1.7 | 6.1 | 0.00 | 0.00 | 0.00 | 38 | 1011.0 |
| 20260507142840 | 74 | 256 | 0.0 | 3.5 | 0.00 | 0.00 | 0.00 | 36 | 1010.9 |
| 20260507142340 | 73 | 353 | 1.7 | 3.5 | 0.00 | 0.00 | 0.00 | 38 | 1010.9 |
| 20260507141840 | 73 | 306 | 0.9 | 4.3 | 0.00 | 0.00 | 0.00 | 38 | 1011.0 |
| 20260507141340 | 71 | 36 | 0.9 | 9.6 | 0.00 | 0.00 | 0.00 | 40 | 1010.9 |
| 20260507140840 | 71 | 2 | 7.8 | 11.3 | 0.00 | 0.00 | 0.00 | 41 | 1011.1 |
| 20260507140340 | 73 | 352 | 7.0 | 11.3 | 0.00 | 0.00 | 0.00 | 40 | 1011.0 |
| 20260507135340 | 73 | 24 | 2.6 | 2.6 | 0.00 | 0.00 | 0.00 | 36 | 1010.8 |
| 20260507134840 | 73 | 204 | 0.9 | 2.6 | 0.00 | 0.00 | 0.00 | 37 | 1011.0 |
| 20260507133340 | 73 | 226 | 5.2 | 5.2 | 0.00 | 0.00 | 0.00 | 36 | 1010.9 |
| 20260507132340 | 72 | 224 | 0.0 | 5.2 | 0.00 | 0.00 | 0.00 | 38 | 1011.4 |
| 20260507131840 | 73 | 248 | 3.5 | 5.2 | 0.00 | 0.00 | 0.00 | 39 | 1011.3 |
| 20260507131340 | 71 | 207 | 2.6 | 5.2 | 0.00 | 0.00 | 0.00 | 39 | 1011.1 |
| 20260507130340 | 72 | 1 | 0.0 | 4.3 | 0.00 | 0.00 | 0.00 | 41 | 1011.2 |
| 20260507125841 | 72 | 135 | 0.0 | 6.1 | 0.00 | 0.00 | 0.00 | 40 | 1011.3 |
| 20260507125340 | 73 | 244 | 1.7 | 6.1 | 0.00 | 0.00 | 0.00 | 38 | 1011.4 |
| 20260507124340 | 74 | 231 | 1.7 | 7.8 | 0.00 | 0.00 | 0.00 | 38 | 1011.6 |
| 20260507123840 | 72 | 197 | 0.0 | 5.2 | 0.00 | 0.00 | 0.00 | 41 | 1011.3 |
| 20260507122840 | 74 | 216 | 3.5 | 7.0 | 0.00 | 0.00 | 0.00 | 38 | 1011.5 |
| 20260507122340 | 71 | 138 | 0.0 | 7.0 | 0.00 | 0.00 | 0.00 | 42 | 1011.3 |
| 20260507121840 | 71 | 189 | 5.2 | 12.2 | 0.00 | 0.00 | 0.00 | 41 | 1011.4 |
| 20260507121340 | 72 | 222 | 5.2 | 12.2 | 0.00 | 0.00 | 0.00 | 41 | 1011.5 |
| 20260507120840 | 74 | 260 | 1.7 | 7.8 | 0.00 | 0.00 | 0.00 | 39 | 1011.5 |
| 20260507120340 | 75 | 17 | 1.7 | 7.0 | 0.00 | 0.00 | 0.00 | 38 | 1011.6 |
| 20260507115839 | 74 | 294 | 0.9 | 7.8 | 0.00 | 0.00 | 0.00 | 40 | 1011.5 |
| 20260507115340 | 73 | 40 | 1.7 | 7.8 | 0.00 | 0.00 | 0.00 | 41 | 1011.7 |
| 20260507114352 | 73 | 211 | 1.7 | 3.5 | 0.00 | 0.00 | 0.00 | 39 | 1011.8 |
| 20260507113339 | 72 | 257 | 0.0 | 6.1 | 0.00 | 0.00 | 0.00 | 44 | 1012.1 |
| 20260507112339 | 70 | 231 | 0.0 | 5.2 | 0.00 | 0.00 | 0.00 | 43 | 1011.7 |
| 20260507111839 | 70 | 227 | 1.7 | 9.6 | 0.00 | 0.00 | 0.00 | 43 | 1012.1 |
| 20260507111340 | 69 | 239 | 1.7 | 9.6 | 0.00 | 0.00 | 0.00 | 44 | 1011.7 |
| 20260507110841 | 70 | 218 | 1.7 | 9.6 | 0.00 | 0.00 | 0.00 | 45 | 1012.1 |
| 20260507105841 | 73 | 236 | 5.2 | 5.2 | 0.00 | 0.00 | 0.00 | 41 | 1012.3 |
| 20260507105340 | 74 | 256 | 1.7 | 5.2 | 0.00 | 0.00 | 0.00 | 38 | 1012.0 |
| 20260507103840 | 70 | 222 | 1.7 | 8.7 | 0.00 | 0.00 | 0.00 | 43 | 1012.0 |
| 20260507103345 | 72 | 265 | 2.6 | 6.1 | 0.00 | 0.00 | 0.00 | 42 | 1012.1 |
| 20260507102840 | 70 | 237 | 1.7 | 6.1 | 0.00 | 0.00 | 0.00 | 44 | 1012.3 |
| 20260507102340 | 71 | 251 | 2.6 | 11.3 | 0.00 | 0.00 | 0.00 | 42 | 1012.3 |
| 20260507101839 | 70 | 242 | 2.6 | 11.3 | 0.00 | 0.00 | 0.00 | 43 | 1012.4 |
| 20260507101340 | 70 | 115 | 0.0 | 7.8 | 0.00 | 0.00 | 0.00 | 43 | 1012.3 |
| 20260507100839 | 70 | 306 | 2.6 | 7.8 | 0.00 | 0.00 | 0.00 | 44 | 1012.3 |
| 20260507100353 | 70 | 357 | 0.9 | 3.5 | 0.00 | 0.00 | 0.00 | 46 | 1012.4 |
| 20260507095840 | 69 | 217 | 0.9 | 3.5 | 0.00 | 0.00 | 0.00 | 47 | 1012.4 |
| 20260507095340 | 69 | 328 | 0.9 | 5.2 | 0.00 | 0.00 | 0.00 | 47 | 1012.4 |
| 20260507094841 | 68 | 332 | 1.7 | 5.2 | 0.00 | 0.00 | 0.00 | 49 | 1012.3 |
| 20260507094340 | 69 | 350 | 1.7 | 5.2 | 0.00 | 0.00 | 0.00 | 48 | 1012.1 |
| 20260507093840 | 69 | 233 | 1.7 | 5.2 | 0.00 | 0.00 | 0.00 | 47 | 1012.1 |
| 20260507092840 | 68 | 285 | 0.9 | 7.8 | 0.00 | 0.00 | 0.00 | 50 | 1012.1 |
| 20260507092341 | 67 | 221 | 2.6 | 4.3 | 0.00 | 0.00 | 0.00 | 52 | 1011.9 |
| 20260507091840 | 67 | 241 | 3.5 | 5.2 | 0.00 | 0.00 | 0.00 | 51 | 1012.1 |
| 20260507090840 | 66 | 192 | 1.7 | 4.3 | 0.00 | 0.00 | 0.00 | 51 | 1012.1 |
| 20260507090340 | 67 | 8 | 0.9 | 4.3 | 0.00 | 0.00 | 0.00 | 52 | 1012.0 |
| 20260507085840 | 67 | 231 | 2.6 | 4.3 | 0.00 | 0.00 | 0.00 | 51 | 1011.9 |
| 20260507085340 | 67 | 24 | 2.6 | 4.3 | 0.00 | 0.00 | 0.00 | 51 | 1012.1 |
| 20260507084840 | 67 | 209 | 3.5 | 4.3 | 0.00 | 0.00 | 0.00 | 51 | 1012.1 |
| 20260507084340 | 66 | 272 | 0.9 | 3.5 | 0.00 | 0.00 | 0.00 | 53 | 1011.9 |
| 20260507083840 | 65 | 25 | 1.7 | 7.8 | 0.00 | 0.00 | 0.00 | 56 | 1011.8 |
| 20260507083340 | 64 | 240 | 1.7 | 7.8 | 0.00 | 0.00 | 0.00 | 56 | 1011.8 |
| 20260507082840 | 64 | 199 | 3.5 | 7.0 | 0.00 | 0.00 | 0.00 | 56 | 1011.6 |
| 20260507082340 | 65 | 205 | 0.0 | 4.3 | 0.00 | 0.00 | 0.00 | 56 | 1011.8 |
| 20260507080840 | 65 | 233 | 6.1 | 7.8 | 0.00 | 0.00 | 0.00 | 54 | 1011.8 |
| 20260507075340 | 64 | 214 | 3.5 | 4.3 | 0.00 | 0.00 | 0.00 | 55 | 1011.6 |
| 20260507074340 | 64 | 223 | 2.6 | 4.3 | 0.00 | 0.00 | 0.00 | 55 | 1011.8 |
| 20260507073840 | 64 | 269 | 1.7 | 5.2 | 0.00 | 0.00 | 0.00 | 57 | 1011.4 |
| 20260507073340 | 64 | 242 | 1.7 | 6.1 | 0.00 | 0.00 | 0.00 | 56 | 1011.6 |
| 20260507072340 | 64 | 240 | 1.7 | 6.1 | 0.00 | 0.00 | 0.00 | 58 | 1011.4 |
| 20260507071340 | 64 | 259 | 1.7 | 5.2 | 0.00 | 0.00 | 0.00 | 58 | 1011.2 |
| 20260507070840 | 64 | 11 | 1.7 | 5.2 | 0.00 | 0.00 | 0.00 | 59 | 1011.4 |
| 20260507070353 | 64 | 207 | 3.5 | 5.2 | 0.00 | 0.00 | 0.00 | 57 | 1011.2 |
| 20260507065840 | 64 | 225 | 5.2 | 5.2 | 0.00 | 0.00 | 0.00 | 59 | 1011.3 |
| 20260507065340 | 63 | 359 | 0.9 | 5.2 | 0.00 | 0.00 | 0.00 | 62 | 1011.2 |
| 20260507064840 | 63 | 220 | 3.5 | 5.2 | 0.00 | 0.00 | 0.00 | 62 | 1011.3 |
| 20260507064340 | 62 | 225 | 3.5 | 7.8 | 0.00 | 0.00 | 0.00 | 64 | 1011.4 |
| 20260507062839 | 60 | 224 | 4.3 | 9.6 | 0.00 | 0.00 | 0.00 | 69 | 1011.6 |
| 20260507062340 | 59 | 195 | 1.7 | 7.8 | 0.00 | 0.00 | 0.00 | 70 | 1011.4 |
| 20260507061853 | 59 | 349 | 0.9 | 7.8 | 0.00 | 0.00 | 0.00 | 71 | 1011.1 |
| 20260507061340 | 58 | 221 | 1.7 | 9.6 | 0.00 | 0.00 | 0.00 | 72 | 1011.3 |
| 20260507060839 | 58 | 229 | 1.7 | 9.6 | 0.00 | 0.00 | 0.00 | 73 | 1011.3 |
| 20260507060340 | 58 | 233 | 6.1 | 9.6 | 0.00 | 0.00 | 0.00 | 73 | 1011.3 |
| 20260507055840 | 58 | 96 | 0.9 | 6.1 | 0.00 | 0.00 | 0.00 | 73 | 1010.9 |
| 20260507055340 | 58 | 217 | 2.6 | 6.1 | 0.00 | 0.00 | 0.00 | 72 | 1011.0 |
| 20260507054340 | 58 | 255 | 1.7 | 7.0 | 0.00 | 0.00 | 0.00 | 73 | 1010.6 |
| 20260507053841 | 58 | 235 | 4.3 | 7.0 | 0.00 | 0.00 | 0.00 | 74 | 1010.9 |
| 20260507053341 | 57 | 234 | 2.6 | 7.8 | 0.00 | 0.00 | 0.00 | 74 | 1010.6 |
| 20260507052840 | 57 | 278 | 1.7 | 7.8 | 0.00 | 0.00 | 0.00 | 74 | 1010.6 |
| 20260507052340 | 57 | 240 | 4.3 | 6.1 | 0.00 | 0.00 | 0.00 | 75 | 1010.6 |
| 20260507051840 | 56 | 222 | 0.9 | 6.1 | 0.00 | 0.00 | 0.00 | 76 | 1010.9 |
| 20260507050840 | 56 | 254 | 2.6 | 8.7 | 0.00 | 0.00 | 0.00 | 76 | 1010.6 |
| 20260507050339 | 56 | 237 | 4.3 | 9.6 | 0.00 | 0.00 | 0.00 | 76 | 1010.6 |
| 20260507045840 | 56 | 225 | 7.0 | 9.6 | 0.00 | 0.00 | 0.00 | 76 | 1010.4 |
| 20260507045340 | 56 | 232 | 3.5 | 7.8 | 0.00 | 0.00 | 0.00 | 76 | 1010.5 |
| 20260507044840 | 56 | 238 | 6.1 | 7.8 | 0.00 | 0.00 | 0.00 | 77 | 1010.3 |
| 20260507044339 | 56 | 229 | 3.5 | 5.2 | 0.00 | 0.00 | 0.00 | 77 | 1010.3 |
| 20260507043840 | 56 | 215 | 1.7 | 6.1 | 0.00 | 0.00 | 0.00 | 78 | 1010.3 |
| 20260507043340 | 55 | 204 | 1.7 | 7.0 | 0.00 | 0.00 | 0.00 | 78 | 1010.0 |
| 20260507042840 | 55 | 213 | 0.9 | 7.8 | 0.00 | 0.00 | 0.00 | 79 | 1009.9 |
| 20260507042340 | 55 | 211 | 7.0 | 7.8 | 0.00 | 0.00 | 0.00 | 79 | 1010.1 |
| 20260507041840 | 55 | 201 | 1.7 | 5.2 | 0.00 | 0.00 | 0.00 | 79 | 1009.9 |
| 20260507040840 | 55 | 169 | 1.7 | 4.3 | 0.00 | 0.00 | 0.00 | 79 | 1009.9 |
| 20260507035840 | 55 | 264 | 1.7 | 5.2 | 0.00 | 0.00 | 0.00 | 80 | 1009.7 |
| 20260507035340 | 55 | 221 | 3.5 | 4.3 | 0.00 | 0.00 | 0.00 | 80 | 1009.7 |
| 20260507034839 | 55 | 203 | 1.7 | 4.3 | 0.00 | 0.00 | 0.00 | 80 | 1009.7 |
| 20260507034340 | 55 | 210 | 1.7 | 4.3 | 0.00 | 0.00 | 0.00 | 80 | 1009.6 |
| 20260507033340 | 55 | 206 | 2.6 | 3.5 | 0.00 | 0.00 | 0.00 | 79 | 1009.5 |
| 20260507032340 | 56 | 196 | 2.6 | 3.5 | 0.00 | 0.00 | 0.00 | 79 | 1009.9 |
| 20260507031840 | 56 | 202 | 1.7 | 5.2 | 0.00 | 0.00 | 0.00 | 78 | 1009.5 |
| 20260507031340 | 56 | 220 | 3.5 | 5.2 | 0.00 | 0.00 | 0.00 | 78 | 1009.4 |
| 20260507030840 | 56 | 219 | 0.9 | 3.5 | 0.00 | 0.00 | 0.00 | 78 | 1009.5 |
| 20260507025841 | 56 | 227 | 1.7 | 6.1 | 0.00 | 0.00 | 0.00 | 78 | 1009.2 |
| 20260507025340 | 56 | 220 | 1.7 | 6.1 | 0.00 | 0.00 | 0.00 | 78 | 1009.0 |
| 20260507024840 | 57 | 194 | 3.5 | 4.3 | 0.00 | 0.00 | 0.00 | 78 | 1009.0 |
| 20260507024339 | 57 | 197 | 1.7 | 4.3 | 0.00 | 0.00 | 0.00 | 78 | 1009.2 |
| 20260507023840 | 57 | 176 | 0.9 | 3.5 | 0.00 | 0.00 | 0.00 | 77 | 1009.0 |
| 20260507022840 | 57 | 197 | 2.6 | 5.2 | 0.00 | 0.00 | 0.00 | 77 | 1009.0 |
| 20260507021853 | 57 | 218 | 0.9 | 4.3 | 0.00 | 0.00 | 0.00 | 78 | 1009.0 |
| 20260507020840 | 57 | 216 | 5.2 | 5.2 | 0.00 | 0.00 | 0.00 | 78 | 1008.9 |
| 20260507020339 | 57 | 246 | 5.2 | 5.2 | 0.00 | 0.00 | 0.00 | 78 | 1009.2 |
| 20260507015840 | 57 | 206 | 1.7 | 5.2 | 0.00 | 0.00 | 0.00 | 78 | 1008.8 |
| 20260507015341 | 57 | 152 | 0.9 | 6.1 | 0.00 | 0.00 | 0.00 | 78 | 1008.8 |
| 20260507014840 | 57 | 228 | 3.5 | 6.1 | 0.00 | 0.00 | 0.00 | 78 | 1008.7 |
| 20260507014340 | 57 | 204 | 1.7 | 4.3 | 0.00 | 0.00 | 0.00 | 78 | 1008.8 |
| 20260507013839 | 57 | 196 | 2.6 | 4.3 | 0.00 | 0.00 | 0.00 | 78 | 1008.8 |
| 20260507013353 | 57 | 207 | 1.7 | 4.3 | 0.00 | 0.00 | 0.00 | 78 | 1008.6 |
| 20260507012839 | 58 | 184 | 3.5 | 3.5 | 0.00 | 0.00 | 0.00 | 78 | 1008.3 |
| 20260507012340 | 58 | 233 | 1.7 | 4.3 | 0.00 | 0.00 | 0.00 | 77 | 1008.4 |
| 20260507011840 | 58 | 212 | 0.9 | 5.2 | 0.00 | 0.00 | 0.00 | 77 | 1008.4 |
| 20260507011353 | 58 | 210 | 2.6 | 5.2 | 0.00 | 0.00 | 0.00 | 76 | 1008.5 |
| 20260507010340 | 59 | 227 | 5.2 | 7.8 | 0.00 | 0.00 | 0.00 | 75 | 1008.4 |
| 20260507005840 | 59 | 217 | 2.6 | 2.6 | 0.00 | 0.00 | 0.00 | 74 | 1008.4 |
| 20260507005340 | 59 | 354 | 0.9 | 2.6 | 0.00 | 0.00 | 0.00 | 73 | 1008.3 |
| 20260507004840 | 59 | 250 | 1.7 | 2.6 | 0.00 | 0.00 | 0.00 | 73 | 1008.3 |
| 20260507004340 | 59 | 197 | 0.0 | 2.6 | 0.00 | 0.00 | 0.00 | 72 | 1008.2 |
| 20260507003840 | 59 | 29 | 0.0 | 3.5 | 0.00 | 0.00 | 0.00 | 71 | 1008.3 |
| 20260507003340 | 59 | 211 | 1.7 | 3.5 | 0.00 | 0.00 | 0.00 | 71 | 1008.2 |
| 20260507002839 | 59 | 243 | 0.9 | 2.6 | 0.00 | 0.00 | 0.00 | 71 | 1007.9 |
| 20260507002340 | 59 | 33 | 0.0 | 2.6 | 0.00 | 0.00 | 0.00 | 71 | 1007.8 |
| 20260507001840 | 60 | 224 | 1.7 | 2.6 | 0.00 | 0.00 | 0.00 | 70 | 1007.8 |
| 20260507001340 | 60 | 180 | 0.0 | 1.7 | 0.00 | 0.00 | 0.00 | 70 | 1007.9 |
| 20260507000840 | 60 | 11 | 0.0 | 2.6 | 0.00 | 0.00 | 0.00 | 70 | 1007.6 |
| 20260507000353 | 60 | 195 | 0.0 | 2.6 | 0.00 | 0.00 | 0.00 | 69 | 1007.9 |
| 20260506235840 | 60 | 232 | 1.7 | 3.5 | 0.00 | 0.00 | 0.00 | 69 | 1007.6 |
| 20260506235340 | 60 | 240 | 1.7 | 4.3 | 0.00 | 0.00 | 0.00 | 69 | 1007.5 |
| 20260506234840 | 60 | 279 | 0.0 | 4.3 | 0.00 | 0.00 | 0.00 | 68 | 1007.6 |
| 20260506232840 | 60 | 314 | 1.7 | 3.5 | 0.00 | 0.00 | 0.00 | 67 | 1007.3 |
| 20260506231840 | 61 | 306 | 0.9 | 3.5 | 0.00 | 0.00 | 0.00 | 66 | 1006.9 |
| 20260506231340 | 61 | 234 | 2.6 | 5.2 | 0.00 | 0.00 | 0.00 | 66 | 1007.0 |
| 20260506230840 | 61 | 278 | 2.6 | 5.2 | 0.00 | 0.00 | 0.00 | 65 | 1007.0 |
| 20260506230340 | 61 | 233 | 1.7 | 5.2 | 0.00 | 0.00 | 0.00 | 65 | 1006.9 |
| 20260506225840 | 62 | 5 | 3.5 | 5.2 | 0.00 | 0.00 | 0.00 | 65 | 1007.1 |
| 20260506225339 | 61 | 137 | 1.7 | 5.2 | 0.00 | 0.00 | 0.00 | 66 | 1007.0 |
| 20260506224840 | 61 | 211 | 0.0 | 4.3 | 0.00 | 0.00 | 0.00 | 67 | 1006.8 |
| 20260506224340 | 61 | 275 | 1.7 | 4.3 | 0.00 | 0.00 | 0.00 | 68 | 1006.8 |
| 20260506223353 | 61 | 7 | 1.7 | 3.5 | 0.00 | 0.00 | 0.00 | 69 | 1006.4 |
| 20260506222839 | 61 | 353 | 1.7 | 3.5 | 0.00 | 0.00 | 0.00 | 69 | 1006.3 |
| 20260506221840 | 62 | 259 | 1.7 | 4.3 | 0.00 | 0.00 | 0.00 | 68 | 1006.3 |
| 20260506221340 | 61 | 351 | 1.7 | 4.3 | 0.00 | 0.00 | 0.00 | 68 | 1006.2 |
| 20260506220840 | 61 | 217 | 1.7 | 4.3 | 0.00 | 0.00 | 0.00 | 68 | 1006.1 |
| 20260506220340 | 62 | 25 | 0.9 | 2.6 | 0.00 | 0.00 | 0.00 | 68 | 1005.9 |
| 20260506215340 | 62 | 236 | 0.9 | 3.5 | 0.00 | 0.00 | 0.00 | 67 | 1005.5 |
| 20260506214841 | 62 | 342 | 1.7 | 3.5 | 0.00 | 0.00 | 0.00 | 66 | 1005.5 |
| 20260506214340 | 63 | 249 | 2.6 | 3.5 | 0.00 | 0.00 | 0.00 | 66 | 1005.6 |
| 20260506213840 | 63 | 255 | 1.7 | 3.5 | 0.00 | 0.00 | 0.00 | 65 | 1005.4 |
| 20260506212840 | 63 | 241 | 1.7 | 7.8 | 0.00 | 0.00 | 0.00 | 64 | 1005.3 |
| 20260506212340 | 62 | 265 | 5.2 | 7.8 | 0.00 | 0.00 | 0.00 | 65 | 1005.5 |
| 20260506211840 | 63 | 227 | 1.7 | 3.5 | 0.00 | 0.00 | 0.00 | 65 | 1004.5 |
| 20260506210841 | 63 | 162 | 1.7 | 5.2 | 0.00 | 0.00 | 0.00 | 64 | 1004.5 |
| 20260506210340 | 63 | 184 | 2.6 | 4.3 | 0.00 | 0.00 | 0.00 | 64 | 1004.5 |
| 20260506205839 | 64 | 170 | 3.5 | 4.3 | 0.00 | 0.00 | 0.00 | 63 | 1004.2 |
| 20260506205340 | 64 | 241 | 0.0 | 3.5 | 0.00 | 0.00 | 0.00 | 63 | 1004.4 |
| 20260506204840 | 64 | 255 | 0.0 | 3.5 | 0.00 | 0.00 | 0.00 | 62 | 1004.3 |
| 20260506204340 | 64 | 219 | 1.7 | 2.6 | 0.00 | 0.00 | 0.00 | 62 | 1004.4 |
| 20260506203839 | 64 | 87 | 0.0 | 4.3 | 0.00 | 0.00 | 0.00 | 61 | 1004.1 |
| 20260506203339 | 65 | 11 | 0.0 | 5.2 | 0.00 | 0.00 | 0.00 | 61 | 1004.2 |
| 20260506202840 | 65 | 0 | 0.0 | 5.2 | 0.00 | 0.00 | 0.00 | 60 | 1004.2 |
| 20260506202340 | 65 | 195 | 0.9 | 6.1 | 0.00 | 0.00 | 0.00 | 60 | 1004.1 |
| 20260506201840 | 65 | 216 | 3.5 | 7.0 | 0.00 | 0.00 | 0.00 | 59 | 1004.1 |
| 20260506201340 | 66 | 230 | 3.5 | 10.4 | 0.00 | 0.00 | 0.00 | 59 | 1003.9 |
| 20260506200840 | 66 | 178 | 5.2 | 10.4 | 0.00 | 0.00 | 0.00 | 58 | 1003.7 |
| 20260506200353 | 66 | 180 | 2.6 | 7.8 | 0.00 | 0.00 | 0.00 | 58 | 1003.9 |
| 20260506195840 | 66 | 198 | 3.5 | 7.8 | 0.00 | 0.00 | 0.00 | 58 | 1003.8 |
| 20260506195340 | 66 | 199 | 6.1 | 7.8 | 0.00 | 0.00 | 0.00 | 58 | 1003.5 |
| 20260506194840 | 66 | 211 | 4.3 | 7.8 | 0.00 | 0.00 | 0.00 | 57 | 1003.9 |
| 20260506194341 | 66 | 215 | 5.2 | 7.8 | 0.00 | 0.00 | 0.00 | 58 | 1003.8 |
| 20260506193839 | 66 | 231 | 2.6 | 6.1 | 0.00 | 0.00 | 0.00 | 58 | 1003.6 |
| 20260506193340 | 66 | 208 | 0.9 | 5.2 | 0.00 | 0.00 | 0.00 | 58 | 1003.3 |
| 20260506192840 | 66 | 225 | 2.6 | 4.3 | 0.00 | 0.00 | 0.00 | 57 | 1003.5 |
| 20260506192354 | 67 | 164 | 0.9 | 7.0 | 0.00 | 0.00 | 0.00 | 57 | 1003.0 |
| 20260506191840 | 67 | 214 | 3.5 | 7.0 | 0.00 | 0.00 | 0.00 | 56 | 1003.2 |
| 20260506191340 | 68 | 193 | 1.7 | 4.3 | 0.00 | 0.00 | 0.00 | 55 | 1003.3 |
| 20260506190840 | 68 | 199 | 2.6 | 6.1 | 0.00 | 0.00 | 0.00 | 54 | 1003.2 |
| 20260506190352 | 68 | 185 | 0.9 | 7.0 | 0.00 | 0.00 | 0.00 | 54 | 1003.2 |